Flag for Austria Weather past 2 weeks in Graz, Styria, Austria

Now
68 °F

Passing clouds.


Feels Like: 68 °F
Forecast: 62 / 78 °F
Wind: 2 mph from North

Location: Graz-Thalerhof-Flughafen

Current Time: Jul 26, 2014 at 9:17:44 AM

Latest Report: Jul 26, 2014 at 8:50 AM


Visibility: N/A

Pressure: 29.98 "Hg

Humidity: 78%

Dew point: 61 °F

Location of GrazLocation

Historic Weather in Graz — Graph

°F

Graz temperature yesterday

Maximum temperature yesterday: 73 °F (at 12:20 PM)
Minimum temperature yesterday: 63 °F (at 6:20 AM)
Average temperature yesterday: 68 °F

Past Weeks' High & Low Weather Summary

 TemperatureHumidityPressure
High88 °F (Jul 20, 3:50 PM)100% (Jul 14, 2:20 AM)30.15 "Hg (Jul 14, 2:20 AM)
Low55 °F (Jul 24, 4:20 AM)40% (Jul 18, 11:50 AM)29.71 "Hg (Jul 11, 1:50 PM)
Average69 °F73%29.95 "Hg
* Reported Jul 11 7:20 AM — Jul 26 7:50 AM, Graz, Weather by CustomWeather, © 2014

Note: Actual official high and low records may vary slightly from our data, if they occured in-between our weather recording intervals... More about our weather records

Advertising

Graz weather history for previous 24 hours

 ConditionsComfort  
Time TempWeatherWind HumidityBarometerVisibility
7:50 AM
Jul 26
64 °FPassing clouds.2 mph88%29.98 "HgN/A
7:20 AM63 °FPassing clouds.2 mph94%29.98 "HgN/A
6:50 AM61 °FPassing clouds.1 mph94%29.98 "HgN/A
6:20 AM59 °FPassing clouds.1 mph94%29.98 "HgN/A
5:50 AM57 °FFog.No wind100%29.98 "Hg6 mi
5:20 AM57 °FFog.2 mph100%29.95 "HgN/A
4:50 AM59 °FFog.1 mph100%29.95 "HgN/A
4:20 AM59 °FFog.1 mph100%29.95 "HgN/A
3:50 AM59 °FCool.1 mph100%29.95 "HgN/A
3:20 AM59 °FCool.2 mph100%29.98 "Hg4 mi
2:50 AM59 °FCool.2 mph100%29.98 "HgN/A
2:20 AM61 °FCool.1 mph100%29.98 "HgN/A
1:50 AM61 °FCool.1 mph94%29.98 "HgN/A
1:20 AM63 °FMild.2 mph94%29.98 "Hg5 mi
12:50 AM63 °FMild.1 mph94%29.98 "HgN/A
12:20 AM64 °FClear.1 mph94%29.98 "Hg10 mi
11:50 PM
Jul 25
64 °FClear.2 mph94%29.98 "Hg10 mi
11:20 PM64 °FClear.1 mph94%29.98 "Hg10 mi
10:50 PM64 °FClear.3 mph94%29.98 "Hg10 mi
10:20 PM64 °FClear.1 mph88%29.98 "Hg10 mi
9:50 PM66 °FClear.2 mph88%29.98 "Hg10 mi
9:20 PM68 °FSunny.2 mph83%29.98 "Hg10 mi
8:50 PM68 °FPassing clouds.2 mph83%29.98 "HgN/A
8:20 PM70 °FPassing clouds.2 mph73%29.95 "HgN/A
7:50 PM73 °FPassing clouds.1 mph65%29.95 "HgN/A
7:20 PM73 °FScattered clouds.2 mph65%29.95 "HgN/A
6:50 PM73 °FScattered clouds.1 mph65%29.95 "HgN/A
6:20 PM72 °FScattered clouds.2 mph69%29.95 "HgN/A
5:50 PM72 °FScattered clouds.2 mph69%29.95 "HgN/A
5:20 PM72 °FPartly sunny.5 mph69%29.95 "HgN/A
4:50 PM72 °FPartly sunny.3 mph65%29.95 "HgN/A
4:20 PM70 °FSprinkles. Broken clouds.6 mph73%29.98 "HgN/A
3:50 PM72 °FSprinkles. Broken clouds.5 mph73%29.98 "HgN/A
3:20 PM72 °FSprinkles. Broken clouds.7 mph65%29.98 "HgN/A
2:50 PM73 °FBroken clouds.7 mph61%29.98 "HgN/A
2:20 PM73 °FBroken clouds.6 mph61%29.98 "HgN/A
1:50 PM72 °FSprinkles. Broken clouds.5 mph73%29.98 "HgN/A
1:20 PM73 °FSprinkles. Broken clouds.2 mph61%29.98 "HgN/A
12:50 PM73 °FSprinkles. Broken clouds.2 mph61%29.98 "HgN/A
12:20 PM73 °FPartly sunny.3 mph65%29.98 "HgN/A
11:50 AM72 °FPartly sunny.3 mph73%29.98 "HgN/A
11:20 AM70 °FPartly sunny.2 mph73%29.98 "HgN/A
10:50 AM70 °FPartly sunny.2 mph73%29.98 "HgN/A
10:20 AM66 °FPartly sunny.2 mph83%29.98 "HgN/A
9:50 AM66 °FPartly sunny.2 mph83%29.95 "HgN/A
9:20 AM64 °FSprinkles. Broken clouds.2 mph88%29.95 "HgN/A
Weather by CustomWeather, © 2014

See weather overviewHow to use our weather pages